EST,Max TemperatureF,Mean TemperatureF,Min TemperatureF,Max Dew PointF,MeanDew PointF,Min DewpointF,Max Humidity, Mean Humidity, Min Humidity, Max Sea Level PressureIn, Mean Sea Level PressureIn, Min Sea Level PressureIn, Max VisibilityMiles, Mean VisibilityMiles, Min VisibilityMiles, Max Wind SpeedMPH, Mean Wind SpeedMPH, Max Gust SpeedMPH,PrecipitationIn, CloudCover, Events, WindDirDegrees
2012-12-1,61,45,29,35,31,26,85,61,37,30.43,30.37,30.32,10,10,10,7,1,9,0.00,0,,55
2012-12-2,67,50,33,49,41,32,100,76,52,30.40,30.29,30.20,10,10,7,15,5,23,0.00,2,,206
2012-12-3,69,60,50,52,50,48,86,70,53,30.29,30.24,30.21,10,10,10,8,2,,0.00,6,,202
2012-12-4,71,55,39,51,45,39,100,71,41,30.29,30.24,30.11,10,4,0,14,5,18,0.00,1,Fog,204
2012-12-5,63,49,34,51,35,22,86,53,20,30.25,30.16,30.07,10,10,10,10,4,14,0.01,2,Rain,277
2012-12-6,47,38,28,30,26,23,85,64,42,30.39,30.30,30.24,10,10,10,13,3,,0.00,3,,47
2012-12-7,48,44,40,45,38,28,100,79,57,30.22,30.10,30.01,10,8,1,8,3,,0.01,8,Rain,191
2012-12-8,63,54,44,53,48,45,100,86,72,30.04,29.98,29.94,10,4,0,14,5,23,0.00,3,Fog,209
2012-12-9,59,50,41,52,48,41,100,89,77,30.14,30.06,29.99,10,3,0,16,4,21,0.01,6,Fog-Rain,51
2012-12-10,63,57,51,57,55,51,100,89,78,29.98,29.77,29.63,10,6,0,17,7,22,T,7,Fog-Rain,204
2012-12-11,59,49,38,55,35,28,93,70,46,30.20,29.97,29.69,10,10,10,12,3,29,0.00,7,,336
2012-12-12,45,42,38,29,26,24,64,55,45,30.39,30.33,30.20,10,10,10,15,9,20,0.00,3,,46
2012-12-13,50,38,25,25,21,18,81,55,29,30.46,30.40,30.37,10,10,10,14,4,18,0.00,0,,18
2012-12-14,59,39,19,25,21,17,92,57,21,30.37,30.31,30.25,10,10,10,13,1,26,0.00,0,,197
2012-12-15,56,44,31,34,27,25,85,58,30,30.28,30.20,30.09,10,10,10,10,3,13,T,3,Rain,158
2012-12-16,49,45,40,48,44,34,100,85,70,30.09,29.94,29.84,10,6,1,12,3,,0.22,7,Rain,208
2012-12-17,54,49,44,54,49,44,100,97,93,29.86,29.77,29.60,10,4,0,14,4,15,0.03,5,Fog-Rain,205
2012-12-18,57,47,36,50,41,29,100,72,44,29.88,29.70,29.62,10,7,0,18,6,26,0.00,3,Fog,239
2012-12-19,62,46,30,35,31,27,92,61,29,30.17,29.99,29.86,10,10,10,15,5,21,0.00,0,,258
2012-12-20,44,38,31,43,36,30,100,81,62,30.20,29.86,29.44,10,8,2,15,4,20,0.70,5,Rain,30
2012-12-21,44,39,34,43,25,18,100,74,48,29.72,29.57,29.44,10,9,1,21,10,33,T,7,,257
2012-12-22,46,40,33,20,17,13,52,40,28,30.09,29.95,29.74,10,10,10,20,9,31,0.00,3,,274
2012-12-23,49,38,26,22,18,13,57,44,31,30.11,30.04,29.96,10,10,10,13,5,18,0.00,0,,216
2012-12-24,42,37,32,37,34,22,100,76,52,30.04,29.95,29.89,10,5,0,13,3,24,0.50,7,Fog-Rain,19
2012-12-25,54,42,30,44,36,30,100,77,54,30.18,30.05,29.91,10,5,0,15,4,20,0.00,5,Fog,81
2012-12-26,40,36,32,36,33,30,100,88,76,30.14,29.74,29.50,10,7,2,29,13,39,1.00,8,Rain,24
2012-12-27,45,36,27,35,25,22,92,71,49,30.09,29.87,29.56,10,10,10,18,8,30,0.00,1,,276
2012-12-28,40,32,23,29,25,22,88,71,54,30.18,30.10,30.01,10,10,10,10,2,,0.00,2,,192
2012-12-29,46,39,31,37,31,23,100,77,53,30.00,29.79,29.63,10,7,1,17,5,29,0.17,7,Rain-Snow,299
2012-12-30,43,35,26,21,17,15,59,47,34,30.37,30.23,29.97,10,10,10,20,7,31,0.00,2,,290
2012-12-31,44,33,21,25,20,16,81,57,33,30.36,30.22,30.06,10,10,10,14,5,36,0.00,1,,212